Regional Weather Roundup
Issued by NWS New Orleans/Baton Rouge, LA

Home | Current Version | Previous Version | Graphics & Text | Print | Product List | Glossary On
Versions: 1 2 3 4 5 6 7 8 9 10 11 12 13 14 15 16 17 18 19 20 21 22 23 24 25 26 27 28 29 30 31 32 33 34 35 36 37 38 39 40 41 42 43 44 45 46 47 48 49 50
699
ASUS44 KLIX 011011
RWRLIX
NEW ORLEANS REGIONAL WEATHER ROUNDUP
NATIONAL WEATHER SERVICE NEW ORLEANS LA
500 AM CDT WED APR 01 2015

NOTE: "FAIR" INDICATES FEW OR NO CLOUDS BELOW 12,000 FEET WITH NO
      SIGNIFICANT WEATHER AND/OR OBSTRUCTIONS TO VISIBILITY.
      SKY/WX - SKY CONDITION AND SIGNIFICANT WEATHER.
      TMP - AIR TEMPERATURE.     DP    - DEWPOINT TEMPERATURE.
      RH  - RELATIVE HUMIDITY.   PRES  - PRESSURE.
      HI  - HEAT INDEX.          WCI   - WIND CHILL INDEX.

*  THESE STATIONS ARE NOT NWS OR FAA STATIONS AND ARE NOT UNDER
   NWS QUALITY CONTROL.

LAZ038-040-048-061>063-065>067-069-011100-
SOUTHEAST LOUISIANA

CITY           SKY/WX    TMP DP  RH WIND       PRES   REMARKS
N.O. AUDUBON   NOT AVBL
N.O. INTL ARPT MOCLDY    65  62  90 S3        30.03R
N.O. LAKEFRONT PTCLDY    66  61  84 CALM      30.03S
SLIDELL        FOG       58  57  97 CALM      30.02S VSB 3/4
BATON ROUGE    PTCLDY    60  59  96 CALM      30.01S
BOOTHVILLE     MOCLDY    66  65  96 CALM      30.04R
BELLE CHASSE   MOCLDY    59  58  96 CALM      30.03R FOG
BOGALUSA*        N/A     56  54  91 SW7       30.02F
GALLIANO*      FOG       56  56  98 CALM      30.04R VSB 1/2
NEW ROADS*     FOG       62  62  97 CALM      30.01F VSB<1/4
GONZALES*        N/A     64  64 100 CALM      30.02S FOG
HAMMOND*       FOG       59  55  88 CALM      30.04S VSB 3/4
HOUMA*         PTCLDY    58  58 100 CALM      30.03R FOG
PORT FOURCHON* SUNNY     70  66  88 CALM      30.06R

$$

MSZ070-080>082-011100-
SOUTHERN MISSISSIPPI

CITY           SKY/WX    TMP DP  RH WIND       PRES   REMARKS
MCCOMB         CLOUDY    63  62  97 SW7       30.01S FOG
GULFPORT       PTCLDY    61  59  93 SW3       30.02S
BILOXI         PTCLDY    66  64  92 W6        30.01F
PASCAGOULA     PTCLDY    64  63  96 CALM      30.02S

$$

COASTAL OBSERVATIONS
LAKE AND NEARSHORE STATIONS

STATION/POSITION TIME  TEMP    WIND        PRES    WAVE
                       AIR SEA DIR/SP/G            HT/PER
                 (UTC) (F)     (DEG/KT/KT) (MB)    (FT/S)
PASCAGOULA       0900   69     240/  8/ 11 1016.2
WAVELAND YACHT   0900   66 70  280/  3/  4 1016.6
GRAND ISLE       0900   69 72  180/  2/  3 1016.3
SOUTHWEST PASS   0900   68 55  190/  4/  5 1017.2
NEW CANAL        0900   66     190/  5/  7 1016.9
SHELL BEACH      0900   67 71  210/  3/  4 1016.7

OFFSHORE STATIONS

STATION/POSITION TIME  TEMP    WIND        PRES    WAVE
                       AIR SEA DIR/SP/G            HT/PER
                 (UTC) (F)     (DEG/KT/KT) (MB)    (FT/S)
64 S DAUPHIN ISL 0950   71 72  230/  6/  6 1017.5    2/ 7

$$




USA.gov is the U.S. government's official web portal to all federal, state and local government web resources and services.